When you browse on this site, cookies collect data to enhance your experience and personalize the content and advertising you see.
Visit our Privacy Policy to learn more. By continuing to use the site, you agree to this use of cookies and data.
  • In Lithuania
  • List of Countries
  • For 7 days
  • Water Temperature
  • Weather Map
  • Weather Widgets
  • user-avatar
    Login

    Hourly Weather Ostrovskiy

    Today, 5 June, Friday

    Time Temperature Precipitation Wind Pressure Humidity
    00:00 +9°C° 0 mm 3 mps 735 mmHg 94%
    01:00 +9°C° 0 mm 3 mps 735 mmHg 94%
    02:00 +9°C° 0 mm 3 mps 736 mmHg 95%
    03:00 +8°C° 0 mm 4 mps 736 mmHg 94%
    04:00 +10°C° 0 mm 4 mps 735 mmHg 93%
    05:00 +11°C° 0 mm 4 mps 735 mmHg 92%
    06:00 +12°C° 0.1 mm 5 mps 736 mmHg 89%
    07:00 +13°C° 0.1 mm 5 mps 736 mmHg 86%
    08:00 +15°C° 0.1 mm 6 mps 736 mmHg 82%
    09:00 +15°C° 1.2 mm 6 mps 736 mmHg 82%
    10:00 +15°C° 1.2 mm 7 mps 736 mmHg 82%
    11:00 +16°C° 1.2 mm 8 mps 736 mmHg 81%
    12:00 +15°C° 1.3 mm 7 mps 736 mmHg 85%
    13:00 +13°C° 1.3 mm 6 mps 736 mmHg 88%
    14:00 +12°C° 1.3 mm 5 mps 735 mmHg 92%
    15:00 +13°C° 0.4 mm 5 mps 735 mmHg 91%
    16:00 +13°C° 0.4 mm 5 mps 735 mmHg 89%
    17:00 +14°C° 0.4 mm 5 mps 735 mmHg 88%
    18:00 +13°C° 0.1 mm 4 mps 736 mmHg 90%
    19:00 +12°C° 0.1 mm 3 mps 736 mmHg 93%
    20:00 +12°C° 0.1 mm 3 mps 736 mmHg 95%
    21:00 +12°C° 0 mm 2 mps 736 mmHg 95%
    22:00 +12°C° 0 mm 2 mps 736 mmHg 96%
    23:00 +10°C° 0 mm 2 mps 736 mmHg 96%

    Tomorrow, 6 June, Saturday

    Time Temperature Precipitation Wind Pressure Humidity
    00:00 +10°C° 0 mm 2 mps 737 mmHg 97%
    01:00 +10°C° 0 mm 2 mps 737 mmHg 97%
    02:00 +11°C° 0 mm 1 mps 737 mmHg 98%
    03:00 +12°C° 0 mm 2 mps 737 mmHg 98%
    04:00 +12°C° 0 mm 2 mps 738 mmHg 98%
    05:00 +13°C° 0 mm 2 mps 738 mmHg 98%
    06:00 +13°C° 0 mm 3 mps 738 mmHg 96%
    07:00 +16°C° 0 mm 3 mps 738 mmHg 94%
    08:00 +17°C° 0 mm 3 mps 739 mmHg 92%
    09:00 +19°C° 0 mm 3 mps 739 mmHg 86%
    10:00 +20°C° 0 mm 4 mps 739 mmHg 80%
    11:00 +22°C° 0 mm 4 mps 739 mmHg 74%
    12:00 +23°C° 0.2 mm 4 mps 739 mmHg 73%
    13:00 +23°C° 0.2 mm 4 mps 739 mmHg 73%
    14:00 +25°C° 0.2 mm 5 mps 739 mmHg 72%
    15:00 +23°C° 0.6 mm 4 mps 739 mmHg 76%
    16:00 +22°C° 0.6 mm 4 mps 739 mmHg 80%
    17:00 +22°C° 0.6 mm 4 mps 739 mmHg 84%
    18:00 +21°C° 0.9 mm 4 mps 739 mmHg 86%
    19:00 +20°C° 0.9 mm 4 mps 739 mmHg 89%
    20:00 +19°C° 0.9 mm 3 mps 740 mmHg 91%
    21:00 +18°C° 0.1 mm 3 mps 740 mmHg 92%
    22:00 +18°C° 0.1 mm 3 mps 740 mmHg 93%
    23:00 +17°C° 0.1 mm 2 mps 740 mmHg 94%

    Day after tomorrow, 7 June, Sunday

    Time Temperature Precipitation Wind Pressure Humidity
    00:00 +17°C° 0 mm 2 mps 740 mmHg 94%
    01:00 +16°C° 0 mm 2 mps 741 mmHg 94%
    02:00 +16°C° 0 mm 2 mps 741 mmHg 94%
    03:00 +16°C° 0 mm 1 mps 741 mmHg 93%
    04:00 +18°C° 0 mm 1 mps 742 mmHg 92%
    05:00 +18°C° 0 mm 1 mps 742 mmHg 90%
    06:00 +20°C° 0 mm 1 mps 742 mmHg 87%
    07:00 +21°C° 0 mm 1 mps 743 mmHg 83%
    08:00 +23°C° 0 mm 1 mps 743 mmHg 80%
    09:00 +24°C° 0.7 mm 1 mps 743 mmHg 76%
    10:00 +25°C° 0.7 mm 1 mps 743 mmHg 72%
    11:00 +26°C° 0.7 mm 1 mps 743 mmHg 69%
    12:00 +26°C° 1.3 mm 1 mps 743 mmHg 69%
    13:00 +26°C° 1.3 mm 1 mps 743 mmHg 69%
    14:00 +26°C° 1.3 mm 1 mps 743 mmHg 68%
    15:00 +26°C° 0.8 mm 1 mps 743 mmHg 72%
    16:00 +26°C° 0.8 mm 1 mps 743 mmHg 75%
    17:00 +26°C° 0.8 mm 1 mps 743 mmHg 79%
    18:00 +24°C° 0.1 mm 1 mps 743 mmHg 82%
    19:00 +23°C° 0.1 mm 1 mps 743 mmHg 85%
    20:00 +21°C° 0.1 mm 1 mps 743 mmHg 89%
    21:00 +21°C° 0 mm 1 mps 743 mmHg 90%
    22:00 +20°C° 0 mm 1 mps 743 mmHg 91%
    23:00 +19°C° 0 mm 1 mps 743 mmHg 92%

    8 June, Monday

    Time Temperature Precipitation Wind Pressure Humidity
    00:00 +19°C° 0 mm 1 mps 743 mmHg 93%
    01:00 +19°C° 0 mm 1 mps 743 mmHg 93%
    02:00 +18°C° 0 mm 1 mps 744 mmHg 94%
    03:00 +19°C° 0 mm 1 mps 744 mmHg 94%
    04:00 +19°C° 0 mm 1 mps 744 mmHg 93%
    05:00 +20°C° 0 mm 1 mps 744 mmHg 93%
    06:00 +21°C° 0 mm 1 mps 744 mmHg 89%
    07:00 +23°C° 0 mm 1 mps 744 mmHg 85%
    08:00 +24°C° 0 mm 1 mps 744 mmHg 80%
    09:00 +25°C° 0.1 mm 1 mps 744 mmHg 76%
    10:00 +26°C° 0.1 mm 1 mps 744 mmHg 73%
    11:00 +27°C° 0.1 mm 1 mps 744 mmHg 69%
    12:00 +27°C° 0.6 mm 1 mps 744 mmHg 69%
    13:00 +27°C° 0.6 mm 1 mps 744 mmHg 70%
    14:00 +27°C° 0.6 mm 1 mps 743 mmHg 70%
    15:00 +27°C° 0.9 mm 1 mps 743 mmHg 73%
    16:00 +27°C° 0.9 mm 1 mps 743 mmHg 76%
    17:00 +26°C° 0.9 mm 1 mps 743 mmHg 79%
    18:00 +25°C° 0.1 mm 1 mps 743 mmHg 82%
    19:00 +23°C° 0.1 mm 1 mps 743 mmHg 85%
    20:00 +22°C° 0.1 mm 1 mps 743 mmHg 88%
    21:00 +21°C° 0 mm 1 mps 743 mmHg 89%
    22:00 +19°C° 0 mm 0 mps 743 mmHg 89%
    23:00 +18°C° 0 mm 0 mps 743 mmHg 89%

    9 June, Tuesday

    Time Temperature Precipitation Wind Pressure Humidity
    00:00 +18°C° 0 mm 0 mps 743 mmHg 90%
    01:00 +18°C° 0 mm 0 mps 743 mmHg 90%
    02:00 +17°C° 0 mm 0 mps 743 mmHg 90%
    03:00 +18°C° 0 mm 0 mps 743 mmHg 90%
    04:00 +19°C° 0 mm 0 mps 743 mmHg 89%
    05:00 +20°C° 0 mm 0 mps 744 mmHg 89%
    06:00 +21°C° 0 mm 0 mps 744 mmHg 85%
    07:00 +22°C° 0 mm 0 mps 744 mmHg 81%
    08:00 +23°C° 0 mm 0 mps 744 mmHg 77%
    09:00 +26°C° 0.2 mm 1 mps 744 mmHg 73%
    10:00 +27°C° 0.2 mm 1 mps 744 mmHg 69%
    11:00 +28°C° 0.2 mm 1 mps 744 mmHg 65%
    12:00 +28°C° 1 mm 1 mps 744 mmHg 67%
    13:00 +28°C° 1 mm 2 mps 743 mmHg 69%
    14:00 +28°C° 1 mm 2 mps 743 mmHg 71%
    15:00 +27°C° 1.5 mm 2 mps 743 mmHg 76%
    16:00 +26°C° 1.5 mm 3 mps 743 mmHg 80%
    17:00 +25°C° 1.5 mm 3 mps 743 mmHg 85%
    18:00 +24°C° 0.4 mm 3 mps 743 mmHg 88%
    19:00 +22°C° 0.4 mm 3 mps 743 mmHg 90%
    20:00 +21°C° 0.4 mm 3 mps 743 mmHg 93%
    21:00 +20°C° 0 mm 3 mps 743 mmHg 93%
    22:00 +20°C° 0 mm 3 mps 744 mmHg 94%
    23:00 +19°C° 0 mm 3 mps 744 mmHg 94%

    10 June, Wednesday

    Time Temperature Precipitation Wind Pressure Humidity
    00:00 +19°C° 0 mm 2 mps 744 mmHg 94%
    01:00 +18°C° 0 mm 2 mps 744 mmHg 94%
    02:00 +18°C° 0 mm 2 mps 744 mmHg 94%
    03:00 +18°C° 0 mm 2 mps 744 mmHg 94%
    04:00 +18°C° 0 mm 2 mps 744 mmHg 94%
    05:00 +18°C° 0 mm 2 mps 744 mmHg 93%
    06:00 +20°C° 0 mm 2 mps 744 mmHg 89%
    07:00 +21°C° 0 mm 2 mps 744 mmHg 85%
    08:00 +22°C° 0 mm 3 mps 744 mmHg 81%
    09:00 +24°C° 0 mm 3 mps 744 mmHg 78%
    10:00 +25°C° 0 mm 3 mps 744 mmHg 75%
    11:00 +26°C° 0 mm 3 mps 744 mmHg 71%
    12:00 +26°C° 0 mm 3 mps 744 mmHg 70%
    13:00 +26°C° 0 mm 3 mps 744 mmHg 70%
    14:00 +26°C° 0 mm 3 mps 744 mmHg 69%
    15:00 +26°C° 0.2 mm 3 mps 744 mmHg 72%
    16:00 +26°C° 0.2 mm 3 mps 744 mmHg 75%
    17:00 +25°C° 0.2 mm 3 mps 743 mmHg 78%
    18:00 +24°C° 0.1 mm 3 mps 743 mmHg 82%
    19:00 +21°C° 0.1 mm 2 mps 744 mmHg 87%
    20:00 +20°C° 0.1 mm 2 mps 744 mmHg 91%
    21:00 +19°C° 0 mm 2 mps 744 mmHg 91%
    22:00 +18°C° 0 mm 2 mps 744 mmHg 92%
    23:00 +18°C° 0 mm 2 mps 743 mmHg 93%
    Show more